This is the latest recevied weather packets stored in our database for station/object SP1BMW-13. If no packets are shown the sender has not sent any weather packets the latest 10 day(s).
| Time | Temp. | Humidity | Pressure | Rain* | Wind** | Luminosity | Snow |
|---|---|---|---|---|---|---|---|
| 1788018033 | 23.33° C | 50% | 1009.8 hPa | 0 mm | 0.89 m/s, 227° | 137 W/m² | - |
| 1788017972 | 23.33° C | 50% | 1009.7 hPa | 0 mm | 1.79 m/s, 253° | 146 W/m² | - |
| 1788017912 | 23.33° C | 50% | 1009.6 hPa | 0 mm | 1.79 m/s, 318° | 155 W/m² | - |
| 1788017857 | 23.33° C | 50% | 1009.6 hPa | 0 mm | 1.79 m/s, 211° | 159 W/m² | - |
| 1788017792 | 23.33° C | 50% | 1009.8 hPa | 0 mm | 1.79 m/s, 17° | 157 W/m² | - |
| 1788017732 | 23.89° C | 51% | 1009.7 hPa | 0 mm | 0.45 m/s, 300° | 145 W/m² | - |
| 1788017672 | 23.89° C | 51% | 1009.9 hPa | 0 mm | 3.13 m/s, 268° | 130 W/m² | - |
| 1788017612 | 23.89° C | 50% | 1009.7 hPa | 0 mm | 1.79 m/s, 318° | 113 W/m² | - |
| 1788017552 | 23.89° C | 50% | 1009.8 hPa | 0 mm | 2.24 m/s, 244° | 109 W/m² | - |
| 1788017492 | 23.89° C | 51% | 1009.8 hPa | 0 mm | 0.89 m/s, 291° | 135 W/m² | - |
| 1788017432 | 23.89° C | 50% | 1009.8 hPa | 0 mm | 2.24 m/s, 236° | 120 W/m² | - |
| 1788017372 | 23.89° C | 50% | 1009.8 hPa | 0 mm | 0.89 m/s, 188° | 103 W/m² | - |
| 1788017314 | 23.89° C | 50% | 1009.7 hPa | 0 mm | 1.79 m/s, 200° | 100 W/m² | - |
| 1788017253 | 23.89° C | 49% | 1009.8 hPa | 0 mm | 1.79 m/s, 239° | 105 W/m² | - |
| 1788017195 | 23.89° C | 49% | 1009.7 hPa | 0 mm | 1.34 m/s, 265° | 108 W/m² | - |
| 1788017133 | 23.89° C | 49% | 1009.7 hPa | 0 mm | 1.79 m/s, 212° | 102 W/m² | - |
| 1788017072 | 23.89° C | 49% | 1009.8 hPa | 0 mm | 1.79 m/s, 220° | 89 W/m² | - |
| 1788017013 | 23.89° C | 49% | 1009.7 hPa | 0 mm | 1.79 m/s, 226° | 79 W/m² | - |
| 1788016953 | 23.89° C | 49% | 1009.7 hPa | 0 mm | 0.45 m/s, 285° | 72 W/m² | - |
| 1788016892 | 23.89° C | 51% | 1009.7 hPa | 0 mm | 0 m/s | 67 W/m² | - |
| 1788016833 | 23.89° C | 50% | 1009.6 hPa | 0 mm | 0 m/s | 61 W/m² | - |
| 1788016772 | 23.89° C | 48% | 1009.7 hPa | 0 mm | 0 m/s | 54 W/m² | - |
| 1788016712 | 23.89° C | 48% | 1009.6 hPa | 0 mm | 0.89 m/s, 333° | 47 W/m² | - |
| 1788016654 | 23.89° C | 47% | 1009.5 hPa | 0 mm | 0.89 m/s, 226° | 44 W/m² | - |
| 1788016593 | 23.89° C | 48% | 1009.7 hPa | 0 mm | 0.45 m/s, 283° | 44 W/m² | - |
* Rain latest hour (hover to see other rain measurements)
** Current wind speed in m/s (hover to see current wind gust speed)